Weather History for KTTD - October, 2013

Change the Weather History Date:

Friday, October 11, 2013

  Actual Average Record
Temperature  
Mean Temperature 54 °F 55 °F  
Max Temperature 59 °F 66 °F - ()
Min Temperature 48 °F 45 °F - ()
Degree Days  
Heating Degree Days 11 10  
Month to date heating degree days 129 91  
Cooling Degree Days 0 0  
Month to date cooling degree days 0 0  
Growing Degree Days 2 (Base 50)    
Moisture  
Dew Point 47 °F    
Average Humidity 79    
Maximum Humidity 96    
Minimum Humidity 62    
Precipitation  
Precipitation T in 0.10 in - ()
Month to date precipitation 1.28 0.98  
Year to date precipitation 22.20 29.55  
Snow  
Snow 0.00 in - - ()
Month to date snowfall 0.0  
Snow Depth 0.00 in    
Sea Level Pressure  
Sea Level Pressure 30.12 in    
Wind  
Wind Speed 0 mph (SSE)    
Max Wind Speed 6 mph    
Max Gust Speed 8 mph    
Visibility 9 miles    
Events      
T = Trace of Precipitation, MM = Missing Value Source: NWS Daily Summary

Daily Weather History Graph

Daily Weather History Graph

Search for Another Location

Airport or City:

Trip Planner

Search our weather history database for the weather conditions in past years. The results will help you decide how hot, cold, wet, or windy it might be!

Date:

Astronomy

Oct. 11, 2013 Rise Set
Actual Time 7:21 AM PDT 6:30 PM PDT
Civil Twilight 6:51 AM PDT 7:00 PM PDT
Nautical Twilight 6:17 AM PDT 7:34 PM PDT
Astronomical Twilight 5:42 AM PDT 8:08 PM PDT
Moon 2:16 PM PDT (10/11) No Moon Set
Length of Visible Light 12h 08m
Length of Day
11h 09m
Waxing Crescent, 48% of the Moon is Illuminated
Oct 11
Waxing Crescent
Oct 11
First Quarter
Oct 18
Full
Oct 26
Last Quarter
Nov 3
New

Hourly Weather History & Observations

Time (PDT) Temp. Dew Point Humidity Pressure Visibility Wind Dir Wind Speed Gust Speed Precip Events Conditions
12:53 AM 53.1 °F 50.0 °F 89% 30.09 in 8.0 mi Calm Calm - N/A   Overcast
1:53 AM 52.0 °F 50.0 °F 93% 30.09 in 10.0 mi Calm Calm - N/A   Overcast
2:53 AM 52.0 °F 50.0 °F 93% 30.11 in 10.0 mi Calm Calm - N/A   Overcast
3:53 AM 52.0 °F 50.0 °F 93% 30.12 in 9.0 mi Calm Calm - N/A   Overcast
4:53 AM 50.0 °F 48.9 °F 96% 30.12 in 8.0 mi Calm Calm - N/A   Overcast
5:53 AM 50.0 °F 48.9 °F 96% 30.13 in 7.0 mi Calm Calm - N/A   Overcast
6:53 AM 50.0 °F 48.0 °F 93% 30.13 in 8.0 mi Calm Calm - N/A   Mostly Cloudy
7:53 AM 50.0 °F 48.0 °F 93% 30.13 in 6.0 mi Calm Calm - N/A   Overcast
8:53 AM 52.0 °F 50.0 °F 93% 30.14 in 10.0 mi Calm Calm - N/A   Overcast
9:53 AM 54.0 °F 48.9 °F 83% 30.15 in 10.0 mi Calm Calm - N/A   Overcast
10:53 AM 55.0 °F 48.0 °F 77% 30.14 in 10.0 mi Calm Calm - N/A   Overcast
11:53 AM 55.9 °F 46.0 °F 69% 30.13 in 10.0 mi East 3.5 mph - N/A   Overcast
12:53 PM 57.0 °F 45.0 °F 64% 30.14 in 10.0 mi Calm Calm - N/A   Mostly Cloudy
1:53 PM 57.9 °F 45.0 °F 62% 30.13 in 10.0 mi Calm Calm - N/A   Overcast
2:53 PM 57.9 °F 45.0 °F 62% 30.13 in 10.0 mi Variable 3.5 mph - N/A   Overcast
3:53 PM 57.0 °F 46.0 °F 67% 30.12 in 10.0 mi Calm Calm - N/A   Overcast
4:53 PM 57.9 °F 45.0 °F 62% 30.11 in 10.0 mi Calm Calm - N/A   Mostly Cloudy
5:53 PM 57.0 °F 45.0 °F 64% 30.10 in 10.0 mi WSW 3.5 mph - N/A   Clear
6:53 PM 54.0 °F 45.0 °F 72% 30.10 in 10.0 mi Calm Calm - N/A   Mostly Cloudy
7:53 PM 52.0 °F 46.0 °F 80% 30.09 in 10.0 mi Calm Calm - N/A   Scattered Clouds
8:53 PM 50.0 °F 46.0 °F 86% 30.10 in 10.0 mi Calm Calm - N/A   Scattered Clouds
9:53 PM 48.9 °F 46.0 °F 90% 30.09 in 10.0 mi Calm Calm - N/A   Overcast
10:53 PM 50.0 °F 46.0 °F 86% 30.09 in 10.0 mi Calm Calm - N/A   Overcast
11:53 PM 50.0 °F 46.9 °F 89% 30.09 in 10.0 mi Calm Calm - N/A   Overcast